Regional Weather Roundup
Issued by NWS

Home | Current Version | Previous Version | Text Only | Print | Product List | Glossary Off
Versions: 1 2 3 4 5 6 7 8 9 10 11 12 13 14 15 16 17 18 19 20 21 22 23 24 25 26 27 28 29 30 31 32 33 34 35 36 37 38 39 40 41 42 43 44 45 46 47 48 49 50

000
ASUS45 KBOI 031510
RWRID

IDAHO REGIONAL WEATHER ROUNDUP
NATIONAL WEATHER SERVICE BOISE ID
900 AM MDT THU SEP 03 2015

NOTE: "FAIR" INDICATES FEW OR NO CLOUDS BELOW 12000 FEET
WITH NO SIGNIFICANT WEATHER AND/OR OBSTRUCTIONS TO VISIBILITY

IDZ012-014-031600-
SOUTHWEST IDAHO


CITY           SKY/WX    TMP DP  RH WIND       PRES   REMARKS
BOISE          MOSUNNY   56  44  64 NW15      29.92R
CALDWELL       MOSUNNY   57  37  47 NW14      29.95R
MOUNTAIN HOME  CLOUDY    59  42  54 NW17      29.91R
$$

IDZ016-017-031600-
SOUTHCENTRAL IDAHO


CITY           SKY/WX    TMP DP  RH WIND       PRES   REMARKS
BURLEY         PTSUNNY   60  40  47 W14G21    29.92R
JEROME         PTSUNNY   57  42  57 S9        29.94R
TWIN FALLS     MOSUNNY   60  38  43 SW14      29.95R
$$

IDZ019>023-031600-
SOUTHEAST IDAHO


CITY           SKY/WX    TMP DP  RH WIND       PRES   REMARKS
IDAHO FALLS    PTSUNNY   60  41  49 SW14      29.93R
POCATELLO      SUNNY     62  39  42 SW12      29.94R
REXBURG        PTSUNNY   62  40  44 S14       29.91R
$$

IDZ006-010-011-018-031-032-031600-
CENTRAL IDAHO MOUNTAINS


CITY           SKY/WX    TMP DP  RH WIND       PRES   REMARKS
MCCALL         LGT RAIN  47  43  86 NW3       29.97R FOG
HAILEY         PTSUNNY   54  43  66 CALM      29.96R
STANLEY          N/A     51  34  52 CALM      29.98R
SALMON         CLOUDY    55  45  67 SW6       29.86R
CHALLIS        CLOUDY    54  38  54 CALM      29.86R
$$

IDZ002-004-006-007-026-031600-
NORTHERN IDAHO


CITY           SKY/WX    TMP DP  RH WIND       PRES   REMARKS
LEWISTON       CLOUDY    57  45  64 E6        29.96R
LOWELL           N/A     55  53  93 CALM      29.97R
COEUR D`ALENE  MOSUNNY   48  -2  12 S5        29.96R
MULLAN PASS    CLOUDY    38  37  97 VRB3      29.97S FOG
$$



USA.gov is the U.S. government's official web portal to all federal, state and local government web resources and services.